    Orbital elements:
    2020 AJ1                                                 Earth MOID = 0.0300 AU
    Epoch 2020 May 31.0 TT = JDT 2459000.5                  Veres
    M  52.84277              (2000.0)            P               Q
    n   0.57165628     Peri.  104.33868     -0.82040721     +0.42705217
    a   1.4378472      Node   102.15590     -0.54445168     -0.78657821
    e   0.6196935      Incl.   22.88787     +0.17465502     -0.44600580
    P   1.72           H   23.3           G   0.15           U   7
    Residuals in seconds of arc
    200104 G96  0.2-  0.3+    200104 033  0.4-  0.0     200104 204  0.1+  0.0
    200104 G96 (0.9+  1.8-)   200104 033  0.3-  0.2-    200104 204  0.3-  0.0
    200104 G96  0.3+  0.0     200104 B49  0.5+  0.4-    200104 204  0.2-  0.1+
    200104 G96  0.0   0.1+    200104 B49  0.6+  0.6-    200104 K63  0.2+  0.5+
    200104 H01  0.1+  0.0     200104 L01  0.1+  0.1-    200104 K63  0.7+  0.2-
    200104 H01  0.2+  0.1-    200104 L01  0.0   0.2-    200104 K63  0.4+  0.0
    200104 H01  0.0   0.0     200104 L01  0.0   0.1-    200104 K63  0.2+  0.6+
    200104 H01  0.0   0.1+    200104 L01  0.1+  0.0     200104 K63  0.7-  0.5+
    200104 I52  0.0   0.2-    200104 L01  0.1-  0.0     200105 C95  0.2+  0.4-
    200104 I52  0.2-  0.1-    200104 L01  0.1-  0.2-    200105 C95  0.0   0.1+
    200104 I52  0.0   0.1-    200104 L01  0.0   0.1-    200105 C95  0.1-  0.1+
    200104 I52  0.0   0.1+    200104 K38  0.6-  0.4+    200105 958  0.1-  0.4-
    200104 595  0.2-  0.9+    200104 C77  0.3+  0.2-    200105 958  0.1-  0.2-
    200104 595  0.1+  0.4+    200104 C77  0.2-  0.6+    200105 958  0.0   0.1-
    200104 595  0.3-  0.0     200104 C77  0.3+  0.5+    200105 958  0.1+  0.2-
    200104 595  0.5-  0.2+    200104 C77  0.2+  0.1+    200105 958  0.0   0.1-
    200104 203  0.3-  0.1-    200104 K38  0.2-  0.3-    200105 H36  0.4-  0.7+
    200104 104  0.0   0.1+    200104 K38  0.1-  0.3-    200105 H36  0.3+  0.3+
    200104 104  0.1-  0.2-    200104 K38  0.2-  0.2-    200105 H36  0.7-  0.8+
    200104 203  0.1+  0.6-    200104 K38  0.1+  0.1+    200105 I52  0.2+  0.1-
    200104 104  0.6+  0.2-    200104 K38  0.1-  0.2+    200105 I52  0.3+  0.3-
    200104 203  0.3+  0.6-    200104 204  0.2-  0.0     200105 I52  0.1+  0.2-
    200104 033  0.1-  0.5-    200104 204  0.1-  0.1+    200105 I52  0.1+  0.2-
    
    Ephemeris:
    2020 AJ1                 a,e,i = 1.44, 0.62, 23                  q = 0.5468
    Date    TT    R. A. (2000) Decl.     Delta      r    Elong.  Phase     V
    2019 12 06    07 25 36.0 -00 23 14   0.4452  1.3389   135.3    31.2    23.5
    ...
    2019 12 21    07 25 06.2 +01 34 23   0.2341  1.1903   148.9    25.3    21.7
    ...
    2019 12 29    07 14 40.2 +07 20 05   0.1292  1.1062   160.7    17.1    20.0
    ...
    2020 01 04    06 35 52.3 +26 04 15   0.05800 1.0410   174.5     5.2    17.6
    2020 01 05    06 15 17.0 +34 03 30   0.04831 1.0300   165.0    14.3    17.6
    2020 01 06    05 37 40.1 +45 03 57   0.04043 1.0189   151.4    27.5    17.6
    ...
    2020 01 12    20 44 25.0 +35 15 42   0.06572 0.9519    59.7   116.9    21.9
    ...
    2020 01 20    20 02 26.9 +17 27 50   0.1623  0.8614    37.8   135.6    25.3
    ...
    2020 02 04    19 53 10.8 +08 16 41   0.3656  0.6973    30.8   133.6    26.4
    
    A. U. Tomatic                (C) Copyright 2020 MPC           M.P.E.C. 2020-A62
    


    Read MPEC 2020-A61 Read MPEC 2020-A63


    MPEC number:

    Enter an MPEC number in one of the following forms:

    • 1997-B01 (the full form)
    • J97B01 (the packed version of the full form)
    • B01 (the abbreviated form)